Home   Weather   Laredo   Past weeks

Flag for USA Past Weather in Laredo, Texas, USA — Yesterday and Last 2 Weeks

Now
92 °F

Sunny.


Feels Like: 93 °F
Forecast: 73 / 92 °F
Wind: 8 mph from Northeast

Location: Laredo International Airport

Current Time: Sep 29, 2016 at 5:13:01 PM

Latest Report: Sep 29, 2016 at 3:56 PM


Visibility: 10 mi

Pressure: 30.10 "Hg

Humidity: 38%

Dew Point: 63 °F

Location of LaredoLocation

Past Weather in Laredo — Graph

°F

Laredo Temperature Yesterday

Maximum temperature yesterday: 89 °F (at 4:56 PM)
Minimum temperature yesterday: 68 °F (at 1:56 AM)
Average temperature yesterday: 77 °F

High & Low Weather Summary for the Past Weeks

 TemperatureHumidityPressure
High102 °F (Sep 18, 4:56 PM)97% (Sep 25, 7:56 PM)30.17 "Hg (Sep 25, 7:56 PM)
Low67 °F (Sep 27, 4:56 AM)26% (Sep 20, 5:56 PM)29.78 "Hg (Sep 24, 5:56 PM)
Average84 °F67%29.97 "Hg
* Reported Sep 14 3:56 PM — Sep 29 3:56 PM, Laredo, Weather by CustomWeather, © 2016

Note: Actual official high and low records may vary slightly from our data, if they occured in-between our weather recording intervals... More about our weather records

Advertising

Laredo Weather History for the Previous 24 Hours

Scroll right to see more
 ConditionsComfort  
Time TempWeatherWind HumidityBarometerVisibility
3:56 PM
Thu, Sep 29
92 °FSunny.8 mph38%30.10 "Hg10 mi
2:56 PM91 °FOvercast.7 mph41%30.12 "Hg10 mi
1:56 PM91 °FPartly sunny.8 mph44%30.14 "Hg10 mi
12:56 PM89 °FSunny.8 mph48%30.16 "Hg10 mi
11:56 AM88 °FSunny.7 mph52%30.17 "Hg10 mi
10:56 AM86 °FSunny.7 mph57%30.17 "Hg10 mi
9:56 AM82 °FSunny.3 mph70%30.16 "Hg10 mi
8:56 AM78 °FSunny.No wind76%30.15 "Hg10 mi
7:56 AM72 °FSunny.No wind93%30.13 "Hg10 mi
6:56 AM72 °FClear.No wind91%30.12 "Hg10 mi
5:56 AM73 °FClear.3 mph88%30.11 "Hg10 mi
4:56 AM75 °FPassing clouds.No wind82%30.09 "Hg10 mi
3:56 AM74 °FClear.3 mph85%30.09 "Hg10 mi
2:56 AM76 °FPassing clouds.5 mph82%30.09 "Hg10 mi
1:56 AM77 °FPassing clouds.5 mph82%30.09 "Hg10 mi
12:56 AM78 °FOvercast.3 mph76%30.09 "Hg10 mi
11:56 PM
Wed, Sep 28
78 °FClear.3 mph79%30.09 "Hg10 mi
10:56 PM78 °FClear.6 mph79%30.08 "Hg10 mi
9:56 PM80 °FClear.6 mph71%30.06 "Hg10 mi
8:56 PM81 °FClear.3 mph72%30.04 "Hg10 mi
7:56 PM83 °FPassing clouds.No wind65%30.04 "Hg10 mi
6:56 PM86 °FSunny.5 mph55%30.03 "Hg10 mi
5:56 PM87 °FScattered clouds.6 mph53%30.03 "Hg10 mi
Weather by CustomWeather, © 2016

See weather overviewHow to use our weather pages